Regional Weather Roundup
Issued by NWS

Home | Current Version | Previous Version | Text Only | Print | Product List | Glossary Off
Versions: 1 2 3 4 5 6 7 8 9 10 11 12 13 14 15 16 17 18 19 20 21 22 23 24 25 26 27 28 29 30 31 32 33 34 35 36 37 38 39 40 41 42 43 44 45 46 47 48 49 50

897
ASUS43 KDMX 271708
RWRIA

WEATHER ROUNDUP FOR IOWA
NATIONAL WEATHER SERVICE DES MOINES IA
1200 PM CDT TUE SEP 27 2016

NOTE: "FAIR" INDICATES FEW OR NO CLOUDS BELOW 12,000 FEET WITH NO
SIGNIFICANT WEATHER AND/OR OBSTRUCTIONS TO VISIBILITY.

* - THESE STATIONS ARE NOT NWS STATIONS...THUS NOT UNDER NWS
QUALITY CONTROL.  THEY ALSO DO NOT REPORT WEATHER SUCH
AS PRECIPITATION OR FOG.

IAZ001>003-012>014-020>022-031>034-043>046-271800-
   NORTHWEST IOWA

CITY           SKY/WX    TMP DP  RH WIND       PRES   REMARKS
CARROLL *        N/A     70  39  32 NW16G22   29.95F
CHEROKEE *       N/A     67  40  37 NW14G20   29.96F
DENISON *        N/A     70  39  32 NW14G21   29.96F
LE MARS *        N/A     68  43  40 MISG      29.98F
ORANGE CITY *    N/A     66  43  42 W14       29.96F
SHELDON *        N/A     66  37  34 W16       29.94F
SIOUX CITY       N/A     71  42  35 NW13G22   29.97F
SPENCER          N/A     67  39  35 W20G26    29.93F
STORM LAKE *     N/A     68  37  32 NW20G28   29.96F
$$

IAZ055>058-069>071-079>083-090>094-271800-
   SOUTHWEST IOWA

CITY           SKY/WX    TMP DP  RH WIND       PRES   REMARKS
ATLANTIC *       N/A     70  39  32 NW16      29.98F
AUDUBON *        N/A     70  37  30 W8G17     29.98F
CLARINDA *       N/A     73  41  31 MISG      30.00F
COUNCIL BLFS *   N/A     70  43  37 W9        30.00F
CRESTON *        N/A     70  43  37 NW14G22   29.99F
HARLAN  *        N/A     70  39  32 NW15G22   30.02F
LAMONI           N/A     71  44  37 NW10      29.98F
RED OAK *        N/A     73  41  31 NW12      29.99F
SHENANDOAH *     N/A     72  39  30 NW10      30.00F
$$

IAZ047>049-059>061-072>074-084-271800-
   CENTRAL IOWA

CITY           SKY/WX    TMP DP  RH WIND       PRES   REMARKS
AMES             N/A     68  40  35 W15G24    29.93F
ANKENY *         N/A    N/A N/A N/A MISG        N/A
BOONE *          N/A     68  39  34 W14G22    29.93F
CHARITON *       N/A     72  39  30 NW12G18   29.95F
DES MOINES       N/A     71  40  32 W18G25    29.94F
GRINNELL*        N/A     67  36  31 W15G26    29.93F
KNOXVILLE *      N/A     70  37  30 NW15G22   29.93F
MARSHALLTOWN     N/A     67  40  37 NW17G24   29.90F
NEWTON *         N/A     70  36  28 NW14G24   29.92F
PELLA *          N/A     67  38  34 W15       29.94F
PERRY *          N/A     72  36  27 W18       29.94F
$$

IAZ004>006-015-016-023>025-035-036-271800-
   NORTH CENTRAL IOWA

CITY           SKY/WX    TMP DP  RH WIND       PRES   REMARKS
ALGONA *         N/A     64  36  34 NW13      29.91F
CLARION *        N/A     64  37  36 NW16G22   29.91F
ESTHERVILLE      N/A     65  34  31 NW15      29.91F
FORT DODGE *     N/A     68  43  40 W12G20    29.93F
MASON CITY       N/A     63  37  38 W20G26    29.90F
FOREST CITY *    N/A     63  34  34 NW18      29.89F
WEBSTER CITY *   N/A     68  36  30 NW18G28   29.90F
IOWA FALLS *     N/A     66  33  28 NW16G25   29.92F
$$

IAZ007>011-017>019-026>030-037>042-050>054-066-271800-
   NORTHEAST IOWA

CITY           SKY/WX    TMP DP  RH WIND       PRES   REMARKS
CEDAR RAPIDS     N/A     66  40  38 W16G28    29.88F
CHARLES CITY *   N/A     64  32  29 W18G26    29.87F
CLINTON *        N/A     66  34  30 W20G29    29.86F
DECORAH *        N/A     61  37  41 W13G26    29.81F
DUBUQUE          N/A     63  37  38 W23G31    29.84F
MONTICELLO *     N/A     66  34  30 NW23G30   29.85F
OELWEIN *        N/A     63  36  36 W18G29    29.86F
WATERLOO         N/A     65  34  31 W15G25    29.87F
$$

IAZ064-065-067-068-078-271800-
   EAST CENTRAL IOWA

CITY           SKY/WX    TMP DP  RH WIND       PRES   REMARKS
DAVENPORT        N/A     69  31  24 W20G29    29.88F
IOWA CITY        N/A     68  40  35 W17G28    29.91F
MT. PLEASANT *   N/A     72  36  26 W12       29.92F
MUSCATINE *      N/A     72  32  23 W20G29    29.89F
QUAD CITIES      N/A     69  38  32 W17G26    29.88F
$$

IAZ062-063-075>077-085>089-095>099-271800-
   SOUTHEAST IOWA

CITY           SKY/WX    TMP DP  RH WIND       PRES   REMARKS
BURLINGTON       N/A     69  38  32 W10       29.91F
FAIRFIELD *      N/A     72  34  25 NW18      29.91F
FORT MADISON *   N/A     72  39  30 W15G21    29.93F
KEOKUK *         N/A     72  37  28 NW10G21   29.92F
OSKALOOSA *      N/A     70  35  27 W17G26    29.93F
CENTERVILLE *    N/A     73  37  27 W13G18    29.97F
OTTUMWA          N/A     71  37  28 NW15G26   29.93F
WASHINGTON *     N/A    N/A N/A N/A MISG        N/A
$$

ABBREVIATIONS USED IN REMARKS
   TC - TEMPERATURES IN CELSIUS
  WCI - WIND CHILL INDEX
   HX - HEAT INDEX
  VSB - VISIBILITY
$$





USA.gov is the U.S. government's official web portal to all federal, state and local government web resources and services.